Find Local Weather

World > North America > United States > New Jersey

Tennent, New Jersey Regional Weather

Lat: 40.28N, Lon: 74.33W
Wx Zone: NJZ013
Warning FLW WEATHER ALERT - (More Info. Click Here) Warning
Feedback

Tennent, NJ Regional Weather

Expires:201905230800;;314777
ASUS41 KOKX 230713
RWROKX

Regional Weather Roundup
National Weather Service New York NY
300 AM EDT THU MAY 23 2019

Note: "FAIR" indicates few or no clouds below 12,000 feet with no
significant weather and/or obstructions to visibility.


NJZ001-105-106-008-010-013-015-019>022-104-230800-
New Jersey
  
CITY           SKY/WX    TMP DP  RH WIND       PRES   REMARKS
Newark/Liberty MOCLDY    63  45  51 SW9       30.17F                  
Teterboro      FAIR      63  45  51 S5        30.16F                  
Caldwell       MOCLDY    64  45  49 VRB5      30.16F                  
Somerville     FAIR      55  50  83 CALM      30.17F                  
Linden         FAIR      62  44  51 CALM      30.18F                  
Perth Amboy      N/A     61 N/A N/A SW6         N/A                   
Sussex         CLOUDY    56  54  93 CALM      30.17F                  
Andover          N/A     61  43  51 SW3       30.17F                  
Trenton        FAIR      59  48  67 SW6       30.19F                  
Millville      FAIR      58  46  64 CALM      30.22F                  
Atlantic City  FAIR      58  47  66 SW3       30.22F                  
Wrightstown    CLOUDY    56  47  71 SW7       30.18F                  
Toms River     FAIR      55  46  71 SW6       30.22F                  
Belmar         FAIR      58  45  62 S5        30.21F                  
$$
 

SKY/WX - Weather  TMP - Temperature  DP - Dew Point  RH - Relative Humidity
WIND - Wind Direction/Speed PRES - Barometric Pressure VSB - Visibility
WCI - Wind Chill Index E13G22 Wind - East Wind 13 mph/Gusts of 22 mph